period_start,C,m1,H,J0,J1,J2,J3,J4,J5,JA,JB,JC,JD,JJ,JK,JN,#
2018-05-22 00:00:51,0.05,0.19,0.00,26.47,29.07,31.70,13.67,46.97,1015.65,2019.98,3343.90,3024.71,3480.19,599.48,588.16,8.38,0000 0000 0000 0000 000000
2018-05-22 00:05:53,0.03,0.19,0.00,26.47,29.10,31.74,13.65,46.91,1015.64,2019.87,3342.91,3023.99,3479.25,599.61,588.24,8.43,0000 0000 0000 0000 000000
2018-05-22 00:10:54,0.02,0.19,0.00,26.52,29.13,31.76,13.69,46.90,1015.63,2019.55,3341.95,3023.19,3478.54,600.00,588.39,8.48,0000 0000 0000 0000 000000
2018-05-22 00:15:55,0.02,0.19,0.00,26.56,29.16,31.79,13.67,46.94,1015.61,2019.34,3341.01,3022.61,3477.85,599.95,588.38,8.53,0000 0000 0000 0000 000000
2018-05-22 00:20:57,0.02,0.19,0.00,26.57,29.20,31.83,13.61,46.96,1015.62,2019.08,3340.02,3021.95,3476.97,599.74,588.09,8.58,0000 0000 0000 0000 000000
2018-05-22 00:25:58,0.05,0.19,0.00,26.63,29.22,31.85,13.75,47.08,1015.62,2019.01,3338.97,3021.10,3476.09,600.00,588.22,8.63,0000 0000 0000 0000 000000
2018-05-22 00:30:59,0.04,0.20,0.00,26.70,29.25,31.89,13.71,46.99,1015.61,2019.00,3338.05,3020.61,3475.39,599.90,588.08,8.68,0000 0000 0000 0000 000000
2018-05-22 00:36:00,0.04,0.20,0.00,26.74,29.28,31.91,13.70,46.91,1015.62,2019.00,3337.01,3019.85,3474.53,600.02,588.13,8.73,0000 0000 0000 0000 000000
2018-05-22 00:41:02,0.04,0.20,0.00,26.76,29.31,31.94,13.75,46.94,1015.60,2018.99,3335.97,3019.08,3473.71,600.11,588.09,8.78,0000 0000 0000 0000 000000
2018-05-22 00:46:03,0.04,0.20,0.00,26.81,29.34,31.96,13.65,46.96,1015.51,2018.96,3335.05,3018.39,3472.89,599.78,587.66,8.83,0000 0000 0000 0000 000000
2018-05-22 00:51:05,0.01,0.20,0.00,26.85,29.37,32.00,13.72,46.96,1015.42,2018.71,3334.21,3017.84,3472.02,600.19,587.92,8.88,0000 0000 0000 0000 000000
2018-05-22 00:56:06,0.01,0.20,0.00,26.86,29.40,32.01,13.59,46.90,1015.52,2018.30,3333.25,3017.05,3471.18,599.98,587.76,8.93,0000 0000 0000 0000 000000
2018-05-22 01:01:07,0.04,0.21,0.00,26.88,29.43,32.05,13.68,46.92,1015.55,2018.05,3332.14,3016.26,3470.31,600.03,587.72,8.98,0000 0000 0000 0000 000000
2018-05-22 01:06:09,0.04,0.21,0.00,26.95,29.46,32.08,13.61,46.80,1015.29,2018.00,3331.08,3015.66,3469.49,599.69,587.18,9.03,0000 0000 0000 0000 000000
2018-05-22 01:11:10,0.04,0.21,0.00,27.03,29.49,32.11,13.65,46.89,1015.19,2018.00,3330.07,3014.89,3468.65,600.01,587.11,9.08,0000 0000 0000 0000 000000
2018-05-22 01:16:11,0.04,0.21,0.00,27.08,29.53,32.13,13.71,46.79,1015.19,2018.00,3329.04,3014.09,3467.86,600.42,587.46,9.13,0000 0000 0000 0000 000000
2018-05-22 01:21:12,0.05,0.22,0.00,27.12,29.56,32.19,13.57,46.85,1015.16,2018.00,3328.00,3013.39,3466.95,600.03,587.06,9.19,0000 0000 0000 0000 000000
2018-05-22 01:26:13,0.03,0.22,0.00,27.13,29.60,32.22,13.64,46.83,1015.17,2017.93,3326.99,3012.70,3466.02,600.19,587.16,9.24,0000 0000 0000 0000 000000
2018-05-22 01:31:15,0.01,0.22,0.00,27.16,29.63,32.26,13.66,46.87,1015.16,2017.49,3325.95,3011.91,3465.10,599.78,586.82,9.29,0000 0000 0000 0000 000000
2018-05-22 01:36:16,0.02,0.22,0.00,27.18,29.66,32.30,13.70,46.96,1015.15,2017.14,3324.85,3011.10,3464.21,600.47,587.26,9.34,0000 0000 0000 0000 000000
2018-05-22 01:41:17,0.06,0.22,0.00,27.21,29.70,32.34,13.69,46.89,1015.15,2017.05,3323.82,3010.33,3463.32,600.08,586.88,9.39,0000 0000 0000 0000 000000
2018-05-22 01:46:19,0.04,0.22,0.00,27.22,29.73,32.37,13.57,46.73,1015.15,2017.01,3322.75,3009.68,3462.54,599.63,586.49,9.44,0000 0000 0000 0000 000000
2018-05-22 01:51:20,0.05,0.23,0.00,27.22,29.76,32.40,13.69,46.85,1015.14,2017.00,3321.57,3008.85,3461.48,600.11,586.86,9.49,0000 0000 0000 0000 000000
2018-05-22 01:56:21,0.04,0.23,0.00,27.28,29.79,32.45,13.66,46.89,1015.15,2016.98,3320.58,3008.06,3460.62,600.30,587.00,9.54,0000 0000 0000 0000 000000
2018-05-22 02:01:23,0.04,0.23,0.00,27.33,29.82,32.47,13.60,46.77,1015.15,2016.87,3319.57,3007.38,3459.72,599.81,586.45,9.59,0000 0000 0000 0000 000000
2018-05-22 02:06:24,0.01,0.23,0.00,27.37,29.85,32.50,13.67,46.88,1015.15,2016.55,3318.50,3006.88,3458.93,600.15,586.56,9.64,0000 0000 0000 0000 000000
2018-05-22 02:11:25,0.01,0.23,0.00,27.40,29.88,32.53,13.67,46.77,1015.15,2016.19,3317.42,3006.05,3458.02,600.00,586.49,9.69,0000 0000 0000 0000 000000
2018-05-22 02:16:26,0.04,0.23,0.00,27.41,29.91,32.57,13.68,46.83,1015.15,2016.02,3316.38,3005.21,3457.08,599.78,586.23,9.74,0000 0000 0000 0000 000000
2018-05-22 02:21:28,0.05,0.24,0.00,27.47,29.95,32.60,13.61,46.79,1015.15,2016.00,3315.34,3004.53,3456.22,600.13,586.41,9.79,0000 0000 0000 0000 000000
2018-05-22 02:26:29,0.04,0.24,0.00,27.53,29.98,32.62,13.63,46.81,1015.15,2016.00,3314.27,3003.85,3455.28,599.97,586.21,9.84,0000 0000 0000 0000 000000
2018-05-22 02:31:30,0.05,0.24,0.00,27.56,30.01,32.66,13.64,46.79,1015.15,2015.99,3313.25,3003.04,3454.45,599.93,586.31,9.89,0000 0000 0000 0000 000000
2018-05-22 02:36:32,0.05,0.24,0.00,27.59,30.05,32.69,13.69,46.83,1015.06,2015.98,3312.09,3002.18,3453.62,599.91,585.95,9.94,0000 0000 0000 0000 000000
2018-05-22 02:41:34,0.04,0.25,0.00,27.62,30.08,32.73,13.68,46.82,1015.08,2015.91,3310.96,3001.45,3452.67,599.99,585.83,9.99,0000 0000 0000 0000 000000
2018-05-22 02:46:35,0.01,0.25,0.00,27.64,30.12,32.76,13.62,46.81,1014.96,2015.57,3309.79,3000.67,3451.74,599.89,585.76,10.04,0000 0000 0000 0000 000000
2018-05-22 02:51:36,0.01,0.25,0.00,27.69,30.15,32.80,13.56,46.89,1014.75,2015.22,3308.84,2999.98,3450.88,599.92,585.62,10.09,0000 0000 0000 0000 000000
2018-05-22 02:56:37,0.04,0.25,0.00,27.73,30.19,32.83,13.69,46.77,1014.68,2015.04,3307.78,2999.16,3449.95,600.42,585.96,10.14,0000 0000 0000 0000 000000
2018-05-22 03:01:39,0.05,0.25,0.00,27.78,30.22,32.87,13.53,46.75,1014.67,2015.00,3306.68,2998.36,3449.05,599.55,585.13,10.19,0000 0000 0000 0000 000000
2018-05-22 03:06:40,0.05,0.25,0.00,27.80,30.26,32.90,13.55,46.77,1014.66,2014.99,3305.51,2997.58,3448.10,599.82,585.34,10.24,0000 0000 0000 0000 000000
2018-05-22 03:11:41,0.02,0.26,0.00,27.82,30.29,32.92,13.61,46.95,1014.65,2014.94,3304.68,2996.94,3447.16,600.06,585.40,10.29,0000 0000 0000 0000 000000
2018-05-22 03:16:43,0.02,0.26,0.00,27.85,30.32,32.95,13.59,46.92,1014.66,2014.71,3303.59,2996.13,3446.40,599.86,585.19,10.34,0000 0000 0000 0000 000000
2018-05-22 03:21:44,0.02,0.26,0.00,27.88,30.36,32.99,13.62,46.88,1014.58,2014.09,3302.34,2995.21,3445.29,600.41,585.57,10.39,0000 0000 0000 0000 000000
2018-05-22 03:26:45,0.05,0.26,0.00,27.90,30.39,33.03,13.60,46.91,1014.58,2014.01,3301.24,2994.53,3444.41,599.88,584.99,10.44,0000 0000 0000 0000 000000
2018-05-22 03:31:47,0.04,0.26,0.00,27.99,30.42,33.06,13.58,46.79,1014.63,2014.00,3299.97,2993.76,3443.55,599.76,584.82,10.49,0000 0000 0000 0000 000000
2018-05-22 03:36:49,0.04,0.27,0.00,28.04,30.46,33.09,13.55,46.65,1014.52,2014.00,3298.99,2993.00,3442.69,599.67,584.65,10.54,0000 0000 0000 0000 000000
2018-05-22 03:41:50,0.05,0.27,0.00,28.07,30.49,33.12,13.59,46.83,1014.48,2013.99,3297.99,2992.20,3441.79,599.96,584.80,10.59,0000 0000 0000 0000 000000
2018-05-22 03:46:51,0.05,0.27,0.00,28.10,30.53,33.15,13.66,46.83,1014.39,2013.99,3296.90,2991.56,3440.91,599.81,584.45,10.64,0000 0000 0000 0000 000000
2018-05-22 03:51:52,0.03,0.27,0.00,28.14,30.56,33.20,13.63,46.79,1014.43,2013.86,3295.80,2990.72,3439.97,600.65,585.26,10.69,0000 0000 0000 0000 000000
2018-05-22 03:56:54,0.02,0.27,0.00,28.17,30.60,33.23,13.61,46.82,1014.61,2013.57,3294.65,2989.98,3439.07,600.28,584.89,10.74,0000 0000 0000 0000 000000
2018-05-22 04:01:55,0.01,0.28,0.00,28.20,30.64,33.26,13.58,46.71,1014.51,2013.12,3293.63,2989.13,3438.18,599.70,584.17,10.79,0000 0000 0000 0000 000000
2018-05-22 04:06:56,0.05,0.28,0.00,28.26,30.68,33.29,13.59,46.76,1014.29,2013.02,3292.53,2988.33,3437.24,600.03,584.39,10.84,0000 0000 0000 0000 000000
2018-05-22 04:11:57,0.05,0.28,0.00,28.31,30.72,33.33,13.52,46.79,1014.26,2013.00,3291.47,2987.64,3436.30,599.84,584.07,10.89,0000 0000 0000 0000 000000
2018-05-22 04:16:58,0.04,0.28,0.00,28.36,30.76,33.37,13.60,46.86,1014.21,2012.99,3290.47,2986.92,3435.43,599.91,584.00,10.94,0000 0000 0000 0000 000000
2018-05-22 04:22:00,0.04,0.28,0.00,28.37,30.80,33.41,13.62,46.96,1014.20,2012.92,3289.60,2986.09,3434.53,600.25,584.48,10.99,0000 0000 0000 0000 000000
2018-05-22 04:27:01,0.03,0.29,0.00,28.38,30.84,33.45,13.60,46.88,1014.19,2012.72,3288.50,2985.36,3433.66,600.26,584.26,11.04,0000 0000 0000 0000 000000
2018-05-22 04:32:02,0.00,0.29,0.00,28.40,30.88,33.49,13.61,46.94,1014.19,2012.15,3287.41,2984.59,3432.64,600.07,584.08,11.09,0000 0000 0000 0000 000000
2018-05-22 04:37:04,0.04,0.29,0.00,28.44,30.91,33.54,13.55,46.81,1014.18,2012.00,3286.14,2983.75,3431.61,599.75,583.66,11.14,0000 0000 0000 0000 000000
2018-05-22 04:42:05,0.05,0.29,0.00,28.46,30.95,33.57,13.57,46.99,1014.19,2012.00,3284.98,2982.91,3430.69,599.99,583.95,11.19,0000 0000 0000 0000 000000
2018-05-22 04:47:07,0.05,0.29,0.00,28.48,30.99,33.60,13.60,46.88,1014.18,2011.97,3283.86,2982.09,3429.78,600.05,583.81,11.24,0000 0000 0000 0000 000000
2018-05-22 04:52:08,0.04,0.30,0.00,28.50,31.02,33.63,13.64,46.87,1014.18,2011.89,3282.82,2981.34,3428.88,600.11,583.95,11.29,0000 0000 0000 0000 000000
2018-05-22 04:57:09,0.00,0.30,0.00,28.53,31.06,33.66,13.63,46.81,1014.18,2011.37,3281.59,2980.54,3427.94,600.09,583.89,11.34,0000 0000 0000 0000 000000
2018-05-22 05:02:10,0.02,0.30,0.00,28.55,31.09,33.70,13.57,46.66,1014.19,2011.11,3280.55,2979.92,3427.06,599.78,583.46,11.40,0000 0000 0000 0000 000000
2018-05-22 05:07:12,0.04,0.30,0.00,28.57,31.12,33.73,13.57,46.67,1014.18,2011.03,3279.57,2979.08,3426.20,600.11,583.76,11.45,0000 0000 0000 0000 000000
2018-05-22 05:12:13,0.05,0.30,0.00,28.62,31.15,33.75,13.60,46.73,1014.19,2011.01,3278.54,2978.45,3425.44,600.01,583.54,11.50,0000 0000 0000 0000 000000
2018-05-22 05:17:15,0.05,0.30,0.00,28.67,31.19,33.78,13.56,46.63,1014.20,2011.00,3277.43,2977.71,3424.52,599.81,583.32,11.55,0000 0000 0000 0000 000000
2018-05-22 05:22:16,0.03,0.31,0.00,28.73,31.22,33.82,13.51,46.62,1014.19,2011.00,3276.54,2976.97,3423.80,600.12,583.41,11.60,0000 0000 0000 0000 000000
2018-05-22 05:27:17,0.05,0.31,0.00,28.79,31.26,33.85,13.57,46.72,1014.18,2010.95,3275.52,2976.11,3422.70,600.04,583.21,11.65,0000 0000 0000 0000 000000
2018-05-22 05:32:19,0.02,0.31,0.00,28.82,31.30,33.88,13.58,46.66,1014.18,2010.72,3274.54,2975.52,3421.87,600.01,583.31,11.70,0000 0000 0000 0000 000000
2018-05-22 05:37:20,0.01,0.31,0.00,28.86,31.34,33.92,13.64,46.64,1014.18,2010.14,3273.47,2974.66,3420.92,600.34,583.26,11.75,0000 0000 0000 0000 000000
2018-05-22 05:42:22,0.03,0.31,0.00,28.90,31.38,33.95,13.58,46.67,1014.18,2010.02,3272.57,2973.94,3420.01,600.16,583.14,11.80,0000 0000 0000 0000 000000
2018-05-22 05:47:23,0.05,0.32,0.00,28.94,31.41,34.00,13.52,46.71,1014.18,2010.00,3271.48,2973.09,3419.10,600.11,583.07,11.85,0000 0000 0000 0000 000000
2018-05-22 05:52:24,0.05,0.32,0.00,28.98,31.46,34.04,13.51,46.67,1014.18,2009.99,3270.53,2972.34,3418.18,599.91,582.66,11.90,0000 0000 0000 0000 000000
2018-05-22 05:57:26,0.03,0.32,0.00,29.03,31.50,34.08,13.57,46.68,1014.18,2009.91,3269.47,2971.67,3417.31,600.07,582.75,11.95,0000 0000 0000 0000 000000
2018-05-22 06:02:27,-0.01,0.32,0.00,29.08,31.54,34.12,13.62,46.77,1014.18,2009.36,3268.45,2970.84,3416.31,600.38,583.04,12.00,0000 0000 0000 0000 000000
2018-05-22 06:07:29,0.03,0.32,0.00,29.14,31.59,34.15,13.61,46.81,1014.18,2009.04,3267.40,2970.04,3415.43,599.98,582.67,12.05,0000 0000 0000 0000 000000
2018-05-22 06:12:30,0.05,0.32,0.00,29.17,31.63,34.19,13.52,46.76,1014.18,2009.00,3266.33,2969.24,3414.44,599.71,582.33,12.10,0000 0000 0000 0000 000000
2018-05-22 06:17:31,0.05,0.33,0.00,29.21,31.68,34.23,13.55,46.75,1014.16,2008.98,3265.28,2968.48,3413.50,599.75,582.14,12.15,0000 0000 0000 0000 000000
2018-05-22 06:22:33,0.03,0.33,0.00,29.25,31.72,34.29,13.62,46.78,1014.08,2008.90,3264.17,2967.79,3412.56,600.35,582.58,12.20,0000 0000 0000 0000 000000
2018-05-22 06:27:34,-0.00,0.33,0.00,29.29,31.76,34.32,13.57,46.73,1013.92,2008.45,3263.15,2966.96,3411.64,600.29,582.37,12.25,0000 0000 0000 0000 000000
2018-05-22 06:32:36,0.03,0.33,0.00,29.35,31.81,34.35,13.49,46.80,1013.91,2008.08,3262.07,2966.07,3410.79,600.03,581.98,12.30,0000 0000 0000 0000 000000
2018-05-22 06:37:37,0.05,0.33,0.00,29.42,31.85,34.40,13.51,46.72,1013.91,2008.00,3260.95,2965.23,3409.78,599.44,581.24,12.35,0000 0000 0000 0000 000000
2018-05-22 06:42:38,0.05,0.34,0.00,29.47,31.89,34.44,13.48,46.57,1013.84,2008.00,3259.90,2964.42,3408.82,599.90,581.59,12.40,0000 0000 0000 0000 000000
2018-05-22 06:47:40,0.05,0.34,0.00,29.50,31.94,34.49,13.57,46.62,1013.89,2007.98,3258.83,2963.70,3407.85,600.15,581.82,12.45,0000 0000 0000 0000 000000
2018-05-22 06:52:41,-0.01,0.34,0.00,29.54,31.98,34.53,13.57,46.67,1014.01,2007.50,3257.68,2962.80,3406.80,600.08,581.64,12.50,0000 0000 0000 0000 000000
2018-05-22 06:57:42,0.02,0.34,0.00,29.60,32.02,34.57,13.50,46.69,1014.11,2007.03,3256.64,2962.00,3405.86,600.10,581.77,12.55,0000 0000 0000 0000 000000
2018-05-22 07:02:43,0.05,0.34,0.00,29.65,32.06,34.63,13.58,46.64,1014.11,2007.00,3255.59,2961.19,3404.94,600.52,582.01,12.60,0000 0000 0000 0000 000000
2018-05-22 07:07:45,0.05,0.34,0.00,29.67,32.11,34.65,13.52,46.67,1014.02,2006.99,3254.50,2960.47,3404.01,600.21,581.70,12.65,0000 0000 0000 0000 000000
2018-05-22 07:12:46,0.03,0.35,0.00,29.72,32.15,34.71,13.50,46.58,1014.08,2006.88,3253.48,2959.74,3403.06,600.16,581.52,12.70,0000 0000 0000 0000 000000
2018-05-22 07:17:47,0.00,0.35,0.00,29.74,32.19,34.75,13.48,46.58,1014.17,2006.46,3252.37,2958.93,3402.13,599.81,581.23,12.75,0000 0000 0000 0000 000000
2018-05-22 07:22:48,0.02,0.35,0.00,29.80,32.23,34.79,13.48,46.59,1014.16,2006.04,3251.29,2958.08,3401.21,600.01,581.36,12.80,0000 0000 0000 0000 000000
2018-05-22 07:27:50,0.05,0.35,0.00,29.87,32.27,34.83,13.48,46.48,1014.14,2006.01,3250.18,2957.30,3400.31,600.21,581.37,12.85,0000 0000 0000 0000 000000
2018-05-22 07:32:51,0.05,0.35,0.00,29.93,32.32,34.88,13.53,46.60,1014.09,2006.00,3249.22,2956.63,3399.40,600.37,581.42,12.90,0000 0000 0000 0000 000000
2018-05-22 07:37:52,0.04,0.36,0.00,29.98,32.36,34.92,13.49,46.58,1014.11,2005.99,3248.18,2955.87,3398.44,600.22,581.14,12.95,0000 0000 0000 0000 000000
2018-05-22 07:42:54,0.03,0.36,0.00,30.02,32.41,34.96,13.55,46.61,1014.16,2005.79,3247.10,2955.04,3397.43,600.06,580.93,13.00,0000 0000 0000 0000 000000
2018-05-22 07:47:55,0.00,0.36,0.00,30.06,32.45,35.01,13.45,46.56,1014.16,2005.30,3246.04,2954.21,3396.58,600.16,580.69,13.05,0000 0000 0000 0000 000000
2018-05-22 07:52:56,0.04,0.36,0.00,30.08,32.50,35.06,13.48,46.52,1014.17,2005.01,3244.98,2953.27,3395.45,600.05,580.77,13.10,0000 0000 0000 0000 000000
2018-05-22 07:57:57,0.05,0.36,0.00,30.12,32.55,35.11,13.47,46.62,1014.17,2005.00,3243.96,2952.62,3394.53,599.98,580.70,13.15,0000 0000 0000 0000 000000
2018-05-22 08:02:58,0.04,0.36,0.00,30.15,32.59,35.16,13.44,46.73,1014.16,2004.94,3242.78,2951.80,3393.54,599.79,580.47,13.20,0000 0000 0000 0000 000000
2018-05-22 08:08:00,-0.00,0.37,0.00,30.18,32.64,35.20,13.50,46.64,1014.16,2004.44,3241.69,2950.97,3392.58,600.32,580.87,13.25,0000 0000 0000 0000 000000
2018-05-22 08:13:01,0.03,0.37,0.00,30.22,32.68,35.25,13.50,46.54,1014.15,2004.03,3240.55,2950.09,3391.57,600.11,580.56,13.30,0000 0000 0000 0000 000000
2018-05-22 08:18:02,0.05,0.37,0.00,30.26,32.73,35.28,13.46,46.67,1014.14,2004.00,3239.48,2949.26,3390.83,599.75,580.12,13.35,0000 0000 0000 0000 000000
2018-05-22 08:23:04,0.05,0.37,0.00,30.28,32.77,35.33,13.50,46.54,1014.17,2004.00,3238.37,2948.54,3390.00,600.11,580.48,13.40,0000 0000 0000 0000 000000
2018-05-22 08:28:05,0.04,0.37,0.00,30.31,32.81,35.39,13.47,46.55,1014.17,2003.93,3237.38,2947.74,3389.03,599.68,580.00,13.45,0000 0000 0000 0000 000000
2018-05-22 08:33:06,0.02,0.38,0.00,30.33,32.85,35.41,13.47,46.44,1014.17,2003.65,3236.21,2947.03,3388.08,600.26,580.45,13.50,0000 0000 0000 0000 000000
2018-05-22 08:38:08,0.01,0.38,0.00,30.35,32.89,35.45,13.43,46.50,1014.19,2003.29,3235.32,2946.33,3387.30,599.50,579.89,13.55,0000 0000 0000 0000 000000
2018-05-22 08:43:09,0.04,0.38,0.00,30.36,32.93,35.48,13.53,46.56,1014.20,2003.02,3234.29,2945.63,3386.38,599.94,580.29,13.60,0000 0000 0000 0000 000000
2018-05-22 08:48:10,0.03,0.38,0.00,30.38,32.96,35.53,13.41,46.43,1014.21,2003.00,3233.33,2944.94,3385.54,600.19,580.17,13.65,0000 0000 0000 0000 000000
2018-05-22 08:53:11,0.05,0.38,0.00,30.39,32.99,35.57,13.47,46.47,1014.22,2002.99,3232.20,2944.11,3384.66,599.90,580.06,13.71,0000 0000 0000 0000 000000
2018-05-22 08:58:12,0.05,0.38,0.00,30.41,33.02,35.61,13.45,46.52,1014.20,2002.96,3231.10,2943.45,3383.75,599.72,579.83,13.76,0000 0000 0000 0000 000000
2018-05-22 09:03:14,-0.00,0.39,0.00,30.42,33.06,35.63,13.43,46.52,1014.20,2002.61,3230.06,2942.81,3382.81,599.67,579.86,13.81,0000 0000 0000 0000 000000
2018-05-22 09:08:15,0.01,0.39,0.00,30.44,33.09,35.67,13.49,46.45,1014.20,2002.07,3229.08,2942.02,3381.90,600.05,580.13,13.86,0000 0000 0000 0000 000000
2018-05-22 09:13:16,0.04,0.39,0.00,30.47,33.12,35.70,13.50,46.50,1014.24,2002.02,3228.13,2941.26,3381.01,599.65,579.71,13.91,0000 0000 0000 0000 000000
2018-05-22 09:18:17,0.06,0.39,0.00,30.49,33.15,35.74,13.46,46.56,1014.37,2002.00,3226.94,2940.39,3380.07,599.86,579.91,13.96,0000 0000 0000 0000 000000
2018-05-22 09:23:19,0.03,0.39,0.00,30.49,33.18,35.77,13.50,46.44,1014.37,2001.99,3225.96,2939.83,3379.20,600.03,580.14,14.01,0000 0000 0000 0000 000000
2018-05-22 09:28:20,0.04,0.40,0.00,30.50,33.21,35.80,13.51,46.48,1014.47,2001.93,3224.93,2939.05,3378.34,600.01,580.06,14.06,0000 0000 0000 0000 000000
2018-05-22 09:33:21,0.03,0.40,0.00,30.52,33.23,35.83,13.45,46.52,1014.43,2001.75,3223.93,2938.35,3377.59,599.86,579.89,14.11,0000 0000 0000 0000 000000
2018-05-22 09:38:22,-0.00,0.40,0.00,30.54,33.26,35.86,13.52,46.48,1014.52,2001.25,3222.95,2937.73,3376.71,599.90,579.96,14.16,0000 0000 0000 0000 000000
2018-05-22 09:43:23,0.02,0.40,0.00,30.53,33.29,35.88,13.48,46.53,1014.49,2001.06,3221.99,2936.99,3375.92,600.08,580.12,14.21,0000 0000 0000 0000 000000
2018-05-22 09:48:24,0.05,0.40,0.00,30.54,33.31,35.90,13.51,46.49,1014.56,2001.00,3221.03,2936.24,3375.06,600.01,580.01,14.26,0000 0000 0000 0000 000000
2018-05-22 09:53:26,0.04,0.40,0.00,30.56,33.34,35.93,13.55,46.49,1014.61,2001.00,3220.03,2935.67,3374.18,600.26,580.36,14.31,0000 0000 0000 0000 000000
2018-05-22 09:58:27,0.03,0.40,0.00,30.55,33.36,35.95,13.54,46.57,1014.54,2001.00,3219.15,2935.02,3373.49,600.33,580.32,14.36,0000 0000 0000 0000 000000
2018-05-22 10:03:28,0.05,0.41,0.00,30.56,33.38,35.98,13.56,46.56,1014.48,2000.99,3218.33,2934.34,3372.79,600.41,580.41,14.41,0000 0000 0000 0000 000000
2018-05-22 10:08:29,0.03,0.41,0.00,30.56,33.40,35.99,13.55,46.58,1014.40,2000.97,3217.27,2933.79,3371.92,600.38,580.31,14.46,0000 0000 0000 0000 000000
2018-05-22 10:13:31,0.04,0.41,0.00,30.58,33.42,36.01,13.49,46.49,1014.52,2000.89,3216.23,2933.00,3371.04,600.01,579.97,14.51,0000 0000 0000 0000 000000
2018-05-22 10:18:32,0.01,0.41,0.00,30.61,33.45,36.02,13.45,46.52,1014.61,2000.56,3215.30,2932.26,3370.19,599.50,579.39,14.56,0000 0000 0000 0000 000000
2018-05-22 10:23:33,0.03,0.41,0.00,30.64,33.47,36.02,13.49,46.54,1014.64,2000.19,3214.28,2931.72,3369.39,599.91,579.81,14.61,0000 0000 0000 0000 000000
2018-05-22 10:28:35,0.02,0.41,0.00,30.66,33.50,36.05,13.46,46.47,1014.66,2000.07,3213.34,2931.03,3368.68,599.71,579.69,14.66,0000 0000 0000 0000 000000
2018-05-22 10:33:36,0.04,0.42,0.00,30.68,33.52,36.08,13.55,46.38,1014.66,2000.02,3212.38,2930.24,3367.88,600.32,580.22,14.71,0000 0000 0000 0000 000000
2018-05-22 10:38:37,0.05,0.42,0.00,30.71,33.55,36.11,13.50,46.34,1014.66,2000.00,3211.37,2929.65,3367.02,599.96,579.78,14.76,0000 0000 0000 0000 000000
2018-05-22 10:43:38,0.04,0.42,0.00,30.73,33.57,36.15,13.50,46.44,1014.66,2000.00,3210.43,2928.96,3366.12,599.93,579.67,14.81,0000 0000 0000 0000 000000
2018-05-22 10:48:39,0.05,0.42,0.00,30.72,33.60,36.18,13.47,46.38,1014.66,2000.00,3209.55,2928.19,3365.44,600.01,579.75,14.86,0000 0000 0000 0000 000000
2018-05-22 10:53:41,0.04,0.43,0.00,30.74,33.62,36.21,13.46,46.42,1014.66,1999.99,3208.55,2927.69,3364.57,600.08,579.82,14.91,0000 0000 0000 0000 000000
2018-05-22 10:58:42,0.02,0.43,0.00,30.73,33.65,36.24,13.51,46.42,1014.66,1999.95,3207.76,2927.02,3363.93,600.27,580.00,14.96,0000 0000 0000 0000 000000
2018-05-22 11:03:44,0.04,0.43,0.00,30.73,33.67,36.25,13.48,46.41,1014.66,1999.91,3206.85,2926.45,3363.11,600.26,580.02,15.01,0000 0000 0000 0000 000000
2018-05-22 11:08:45,0.00,0.43,0.00,30.73,33.69,36.28,13.49,46.42,1014.66,1999.55,3205.86,2925.82,3362.25,600.19,580.03,15.06,0000 0000 0000 0000 000000
2018-05-22 11:13:47,0.02,0.43,0.00,30.72,33.70,36.30,13.56,46.35,1014.66,1999.21,3204.89,2925.06,3361.57,600.16,579.90,15.11,0000 0000 0000 0000 000000
2018-05-22 11:18:48,0.03,0.43,0.00,30.72,33.72,36.32,13.54,46.38,1014.65,1999.06,3203.90,2924.36,3360.77,600.12,579.75,15.16,0000 0000 0000 0000 000000
2018-05-22 11:23:49,0.02,0.44,0.00,30.72,33.74,36.34,13.41,46.44,1014.66,1999.01,3202.98,2923.93,3359.99,599.97,579.65,15.21,0000 0000 0000 0000 000000
2018-05-22 11:28:51,0.05,0.44,0.00,30.70,33.75,36.35,13.56,46.42,1014.65,1999.00,3201.98,2923.12,3359.15,600.32,580.02,15.26,0000 0000 0000 0000 000000
2018-05-22 11:33:52,0.05,0.44,0.00,30.68,33.77,36.38,13.57,46.45,1014.65,1999.00,3201.00,2922.49,3358.30,600.12,580.00,15.31,0000 0000 0000 0000 000000
2018-05-22 11:38:53,0.02,0.44,0.00,30.71,33.77,36.39,13.45,46.38,1014.50,1999.00,3200.07,2921.99,3357.75,600.01,579.78,15.36,0000 0000 0000 0000 000000
2018-05-22 11:43:54,0.05,0.44,0.00,30.68,33.79,36.40,13.54,46.39,1014.39,1999.00,3199.13,2921.22,3357.01,600.22,579.95,15.41,0000 0000 0000 0000 000000
2018-05-22 11:48:56,0.03,0.45,0.00,30.66,33.80,36.40,13.45,46.43,1014.36,1999.00,3198.56,2920.93,3356.29,600.11,579.79,15.46,0000 0000 0000 0000 000000
2018-05-22 11:53:57,0.04,0.45,0.00,30.68,33.80,36.42,13.51,46.27,1014.56,1998.98,3197.65,2920.12,3355.58,600.01,579.80,15.51,0000 0000 0000 0000 000000
2018-05-22 11:58:58,0.02,0.45,0.00,30.66,33.80,36.42,13.55,46.49,1014.51,1998.96,3196.88,2919.85,3354.98,599.98,579.74,15.56,0000 0000 0000 0000 000000
2018-05-22 12:04:00,0.04,0.45,0.00,30.67,33.82,36.42,13.55,46.39,1014.54,1998.93,3196.00,2919.10,3354.19,599.91,579.78,15.61,0000 0000 0000 0000 000000
2018-05-22 12:09:01,0.03,0.45,0.00,30.67,33.82,36.42,13.55,46.39,1014.54,1998.78,3195.08,2918.51,3353.50,600.39,580.19,15.66,0000 0000 0000 0000 000000
2018-05-22 12:14:02,0.01,0.45,0.00,30.67,33.82,36.43,13.55,46.43,1014.52,1998.59,3194.17,2918.00,3352.89,600.13,579.86,15.71,0000 0000 0000 0000 000000
2018-05-22 12:19:03,0.05,0.46,0.00,30.66,33.82,36.43,13.55,46.42,1014.55,1998.67,3193.33,2917.42,3352.13,600.16,579.93,15.76,0000 0000 0000 0000 000000
2018-05-22 12:24:05,0.00,0.46,0.00,30.65,33.82,36.43,13.48,46.43,1014.48,1998.50,3192.60,2916.99,3351.60,600.22,580.01,15.81,0000 0000 0000 0000 000000
2018-05-22 12:29:06,0.04,0.46,0.00,30.64,33.83,36.43,13.53,46.45,1014.32,1998.45,3191.80,2916.38,3350.97,600.12,579.74,15.86,0000 0000 0000 0000 000000
2018-05-22 12:34:07,0.03,0.46,0.00,30.60,33.83,36.46,13.61,46.44,1014.23,1998.36,3191.01,2915.99,3350.15,600.39,580.08,15.91,0000 0000 0000 0000 000000
2018-05-22 12:39:08,0.04,0.46,0.00,30.57,33.83,36.44,13.57,46.38,1014.38,1998.39,3190.15,2915.40,3349.79,599.79,579.65,15.97,0000 0000 0000 0000 000000
2018-05-22 12:44:10,0.02,0.47,0.00,30.59,33.83,36.45,13.56,46.39,1014.59,1998.33,3189.20,2914.96,3349.03,600.03,579.97,16.02,0000 0000 0000 0000 000000
2018-05-22 12:49:11,0.04,0.47,0.00,30.59,33.83,36.46,13.54,46.29,1014.60,1998.24,3188.63,2914.30,3348.43,600.00,579.99,16.07,0000 0000 0000 0000 000000
2018-05-22 12:54:12,0.00,0.47,0.00,30.55,33.83,36.46,13.46,46.35,1014.54,1998.15,3187.90,2913.98,3347.90,599.76,579.79,16.12,0000 0000 0000 0000 000000